Year,Month,Day,Hour,Minute,Value (Times are PST for temperature in C)
2012,06,22,00,00,15.60
2012,06,22,00,01,15.60
2012,06,22,00,02,15.60
2012,06,22,00,03,15.50
2012,06,22,00,04,15.50
2012,06,22,00,05,15.40
2012,06,22,00,06,15.40
2012,06,22,00,07,15.40
2012,06,22,00,08,15.40
2012,06,22,00,09,15.30
2012,06,22,00,10,15.30
2012,06,22,00,11,15.30
2012,06,22,00,12,15.30
2012,06,22,00,13,15.30
2012,06,22,00,14,15.30
2012,06,22,00,15,15.30
2012,06,22,00,16,15.30
2012,06,22,00,17,15.30
2012,06,22,00,18,15.30
2012,06,22,00,19,15.30
2012,06,22,00,20,15.30
2012,06,22,00,21,15.30
2012,06,22,00,22,15.30
2012,06,22,00,23,15.30
2012,06,22,00,24,15.30
2012,06,22,00,25,15.30
2012,06,22,00,26,15.30
2012,06,22,00,27,15.30
2012,06,22,00,28,15.30
2012,06,22,00,29,15.40
2012,06,22,00,30,15.40
2012,06,22,00,31,15.40
2012,06,22,00,32,15.40
2012,06,22,00,33,15.40
2012,06,22,00,34,15.40
2012,06,22,00,35,15.40
2012,06,22,00,36,15.50
2012,06,22,00,37,15.50
2012,06,22,00,38,15.50
2012,06,22,00,39,15.50
2012,06,22,00,40,15.50
2012,06,22,00,41,15.50
2012,06,22,00,42,15.50
2012,06,22,00,43,15.50
2012,06,22,00,44,15.50
2012,06,22,00,45,15.50
2012,06,22,00,46,15.40
2012,06,22,00,47,15.40
2012,06,22,00,48,15.40
2012,06,22,00,49,15.40
2012,06,22,00,50,15.30
2012,06,22,00,51,15.30
2012,06,22,00,52,15.20
2012,06,22,00,53,15.20
2012,06,22,00,54,15.10
2012,06,22,00,55,15.10
2012,06,22,00,56,15.00
2012,06,22,00,57,15.00
2012,06,22,00,58,15.00
2012,06,22,00,59,15.00
2012,06,22,01,00,15.00
2012,06,22,01,01,15.00
2012,06,22,01,02,14.90
2012,06,22,01,03,14.90
2012,06,22,01,04,14.90
2012,06,22,01,05,14.80
2012,06,22,01,06,14.80
2012,06,22,01,07,14.80
2012,06,22,01,08,14.70
2012,06,22,01,09,14.70
2012,06,22,01,10,14.70
2012,06,22,01,11,14.60
2012,06,22,01,12,14.60
2012,06,22,01,13,14.60
2012,06,22,01,14,14.60
2012,06,22,01,15,14.50
2012,06,22,01,16,14.50
2012,06,22,01,17,14.40
2012,06,22,01,18,14.40
2012,06,22,01,19,14.40
2012,06,22,01,20,14.30
2012,06,22,01,21,14.30
2012,06,22,01,22,14.20
2012,06,22,01,23,14.20
2012,06,22,01,24,14.10
2012,06,22,01,25,14.00
2012,06,22,01,26,14.00
2012,06,22,01,27,13.90
2012,06,22,01,28,13.90
2012,06,22,01,29,13.90
2012,06,22,01,30,13.80
2012,06,22,01,31,13.80
2012,06,22,01,32,13.70
2012,06,22,01,33,13.70
2012,06,22,01,34,13.70
2012,06,22,01,35,13.70
2012,06,22,01,36,13.70
2012,06,22,01,37,13.60
2012,06,22,01,38,13.60
2012,06,22,01,39,13.60
2012,06,22,01,40,13.60
2012,06,22,01,41,13.50
2012,06,22,01,42,13.50
2012,06,22,01,43,13.50
2012,06,22,01,44,13.50
2012,06,22,01,45,13.40
2012,06,22,01,46,13.40
2012,06,22,01,47,13.40
2012,06,22,01,48,13.40
2012,06,22,01,49,13.40
2012,06,22,01,50,13.40
2012,06,22,01,51,13.40
2012,06,22,01,52,13.50
2012,06,22,01,53,13.50
2012,06,22,01,54,13.50
2012,06,22,01,55,13.50
2012,06,22,01,56,13.60
2012,06,22,01,57,13.60
2012,06,22,01,58,13.60
2012,06,22,01,59,13.60
2012,06,22,02,00,13.60
2012,06,22,02,01,13.70
2012,06,22,02,02,13.70
2012,06,22,02,03,13.70
2012,06,22,02,04,13.70
2012,06,22,02,05,13.70
2012,06,22,02,06,13.70
2012,06,22,02,07,13.70
2012,06,22,02,08,13.70
2012,06,22,02,09,13.70
2012,06,22,02,10,13.70
2012,06,22,02,11,13.70
2012,06,22,02,12,13.80
2012,06,22,02,13,13.80
2012,06,22,02,14,13.80
2012,06,22,02,15,13.80
2012,06,22,02,16,13.80
2012,06,22,02,17,13.80
2012,06,22,02,18,13.80
2012,06,22,02,19,13.80
2012,06,22,02,20,13.80
2012,06,22,02,21,13.80
2012,06,22,02,22,13.80
2012,06,22,02,23,13.80
2012,06,22,02,24,13.80
2012,06,22,02,25,13.80
2012,06,22,02,26,13.80
2012,06,22,02,27,13.80
2012,06,22,02,28,13.80
2012,06,22,02,29,13.80
2012,06,22,02,30,13.80
2012,06,22,02,31,13.80
2012,06,22,02,32,13.80
2012,06,22,02,33,13.80
2012,06,22,02,34,13.80
2012,06,22,02,35,13.80
2012,06,22,02,36,13.80
2012,06,22,02,37,13.70
2012,06,22,02,38,13.70
2012,06,22,02,39,13.70
2012,06,22,02,40,13.70
2012,06,22,02,41,13.70
2012,06,22,02,42,13.70
2012,06,22,02,43,13.60
2012,06,22,02,44,13.60
2012,06,22,02,45,13.60
2012,06,22,02,46,13.60
2012,06,22,02,47,13.60
2012,06,22,02,48,13.60
2012,06,22,02,49,13.50
2012,06,22,02,50,13.50
2012,06,22,02,51,13.40
2012,06,22,02,52,13.40
2012,06,22,02,53,13.40
2012,06,22,02,54,13.40
2012,06,22,02,55,13.40
2012,06,22,02,56,13.30
2012,06,22,02,57,13.30
2012,06,22,02,58,13.30
2012,06,22,02,59,13.30
2012,06,22,03,00,13.30
2012,06,22,03,01,13.30
2012,06,22,03,02,13.30
2012,06,22,03,03,13.20
2012,06,22,03,04,13.20
2012,06,22,03,05,13.20
2012,06,22,03,06,13.20
2012,06,22,03,07,13.20
2012,06,22,03,08,13.20
2012,06,22,03,09,13.20
2012,06,22,03,10,13.20
2012,06,22,03,11,13.20
2012,06,22,03,12,13.10
2012,06,22,03,13,13.10
2012,06,22,03,14,13.10
2012,06,22,03,15,13.10
2012,06,22,03,16,13.10
2012,06,22,03,17,13.10
2012,06,22,03,18,13.10
2012,06,22,03,19,13.00
2012,06,22,03,20,13.00
2012,06,22,03,21,13.00
2012,06,22,03,22,13.00
2012,06,22,03,23,13.00
2012,06,22,03,24,13.00
2012,06,22,03,25,12.90
2012,06,22,03,26,12.90
2012,06,22,03,27,12.90
2012,06,22,03,28,12.90
2012,06,22,03,29,12.90
2012,06,22,03,30,12.90
2012,06,22,03,31,12.90
2012,06,22,03,32,12.90
2012,06,22,03,33,12.90
2012,06,22,03,34,12.90
2012,06,22,03,35,12.90
2012,06,22,03,36,12.80
2012,06,22,03,37,12.80
2012,06,22,03,38,12.80
2012,06,22,03,39,12.80
2012,06,22,03,40,12.80
2012,06,22,03,41,12.80
2012,06,22,03,42,12.80
2012,06,22,03,43,12.80
2012,06,22,03,44,12.70
2012,06,22,03,45,12.70
2012,06,22,03,46,12.70
2012,06,22,03,47,12.70
2012,06,22,03,48,12.70
2012,06,22,03,49,12.70
2012,06,22,03,50,12.70
2012,06,22,03,51,12.70
2012,06,22,03,52,12.70
2012,06,22,03,53,12.80
2012,06,22,03,54,12.80
2012,06,22,03,55,12.80
2012,06,22,03,56,12.80
2012,06,22,03,57,12.80
2012,06,22,03,58,12.70
2012,06,22,03,59,12.70
2012,06,22,04,00,12.70
2012,06,22,04,01,12.70
2012,06,22,04,02,12.70
2012,06,22,04,03,12.70
2012,06,22,04,04,12.70
2012,06,22,04,05,12.70
2012,06,22,04,06,12.70
2012,06,22,04,07,12.70
2012,06,22,04,08,12.70
2012,06,22,04,09,12.70
2012,06,22,04,10,12.70
2012,06,22,04,11,12.70
2012,06,22,04,12,12.60
2012,06,22,04,13,12.60
2012,06,22,04,14,12.60
2012,06,22,04,15,12.60
2012,06,22,04,16,12.60
2012,06,22,04,17,12.60
2012,06,22,04,18,12.60
2012,06,22,04,19,12.50
2012,06,22,04,20,12.50
2012,06,22,04,21,12.50
2012,06,22,04,22,12.50
2012,06,22,04,23,12.50
2012,06,22,04,24,12.50
2012,06,22,04,25,12.40
2012,06,22,04,26,12.40
2012,06,22,04,27,12.40
2012,06,22,04,28,12.40
2012,06,22,04,29,12.40
2012,06,22,04,30,12.40
2012,06,22,04,31,12.30
2012,06,22,04,32,12.30
2012,06,22,04,33,12.30
2012,06,22,04,34,12.30
2012,06,22,04,35,12.30
2012,06,22,04,36,12.30
2012,06,22,04,37,12.30
2012,06,22,04,38,12.30
2012,06,22,04,39,12.30
2012,06,22,04,40,12.30
2012,06,22,04,41,12.40
2012,06,22,04,42,12.40
2012,06,22,04,43,12.40
2012,06,22,04,44,12.40
2012,06,22,04,45,12.40
2012,06,22,04,46,12.40
2012,06,22,04,47,12.40
2012,06,22,04,48,12.40
2012,06,22,04,49,12.40
2012,06,22,04,50,12.40
2012,06,22,04,51,12.40
2012,06,22,04,52,12.40
2012,06,22,04,53,12.40
2012,06,22,04,54,12.40
2012,06,22,04,55,12.40
2012,06,22,04,56,12.40
2012,06,22,04,57,12.50
2012,06,22,04,58,12.50
2012,06,22,04,59,12.50
2012,06,22,05,00,12.50
2012,06,22,05,01,12.60
2012,06,22,05,02,12.60
2012,06,22,05,03,12.60
2012,06,22,05,04,12.60
2012,06,22,05,05,12.60
2012,06,22,05,06,12.60
2012,06,22,05,07,12.60
2012,06,22,05,08,12.60
2012,06,22,05,09,12.60
2012,06,22,05,10,12.60
2012,06,22,05,11,12.60
2012,06,22,05,12,12.60
2012,06,22,05,13,12.60
2012,06,22,05,14,12.60
2012,06,22,05,15,12.60
2012,06,22,05,16,12.60
2012,06,22,05,17,12.60
2012,06,22,05,18,12.60
2012,06,22,05,19,12.60
2012,06,22,05,20,12.60
2012,06,22,05,21,12.60
2012,06,22,05,22,12.60
2012,06,22,05,23,12.60
2012,06,22,05,24,12.60
2012,06,22,05,25,12.60
2012,06,22,05,26,12.60
2012,06,22,05,27,12.60
2012,06,22,05,28,12.60
2012,06,22,05,29,12.60
2012,06,22,05,30,12.60
2012,06,22,05,31,12.60
2012,06,22,05,32,12.60
2012,06,22,05,33,12.60
2012,06,22,05,34,12.60
2012,06,22,05,35,12.60
2012,06,22,05,36,12.60
2012,06,22,05,37,12.60
2012,06,22,05,38,12.70
2012,06,22,05,39,12.70
2012,06,22,05,40,12.70
2012,06,22,05,41,12.70
2012,06,22,05,42,12.70
2012,06,22,05,43,12.70
2012,06,22,05,44,12.80
2012,06,22,05,45,12.80
2012,06,22,05,46,12.80
2012,06,22,05,47,12.80
2012,06,22,05,48,12.80
2012,06,22,05,49,12.80
2012,06,22,05,50,12.80
2012,06,22,05,51,12.80
2012,06,22,05,52,12.80
2012,06,22,05,53,12.80
2012,06,22,05,54,12.80
2012,06,22,05,55,12.80
2012,06,22,05,56,12.80
2012,06,22,05,57,12.80
2012,06,22,05,58,12.90
2012,06,22,05,59,12.80
2012,06,22,06,00,12.90
2012,06,22,06,01,12.90
2012,06,22,06,02,12.90
2012,06,22,06,03,12.90
2012,06,22,06,04,12.90
2012,06,22,06,05,12.90
2012,06,22,06,06,12.90
2012,06,22,06,07,12.90
2012,06,22,06,08,12.90
2012,06,22,06,09,12.90
2012,06,22,06,10,12.90
2012,06,22,06,11,12.90
2012,06,22,06,12,12.90
2012,06,22,06,13,12.90
2012,06,22,06,14,12.90
2012,06,22,06,15,12.90
2012,06,22,06,16,12.90
2012,06,22,06,17,12.90
2012,06,22,06,18,12.90
2012,06,22,06,19,12.90
2012,06,22,06,20,12.90
2012,06,22,06,21,12.90
2012,06,22,06,22,12.90
2012,06,22,06,23,12.90
2012,06,22,06,24,12.90
2012,06,22,06,25,12.90
2012,06,22,06,26,13.00
2012,06,22,06,27,13.00
2012,06,22,06,28,13.00
2012,06,22,06,29,13.00
2012,06,22,06,30,13.00
2012,06,22,06,31,13.10
2012,06,22,06,32,13.10
2012,06,22,06,33,13.10
2012,06,22,06,34,13.10
2012,06,22,06,35,13.20
2012,06,22,06,36,13.20
2012,06,22,06,37,13.20
2012,06,22,06,38,13.20
2012,06,22,06,39,13.30
2012,06,22,06,40,13.30
2012,06,22,06,41,13.30
2012,06,22,06,42,13.40
2012,06,22,06,43,13.40
2012,06,22,06,44,13.40
2012,06,22,06,45,13.50
2012,06,22,06,46,13.50
2012,06,22,06,47,13.50
2012,06,22,06,48,13.50
2012,06,22,06,49,13.60
2012,06,22,06,50,13.60
2012,06,22,06,51,13.60
2012,06,22,06,52,13.60
2012,06,22,06,53,13.60
2012,06,22,06,54,13.60
2012,06,22,06,55,13.60
2012,06,22,06,56,13.60
2012,06,22,06,57,13.60
2012,06,22,06,58,13.60
2012,06,22,06,59,13.60
2012,06,22,07,00,13.60
2012,06,22,07,01,13.60
2012,06,22,07,02,13.70
2012,06,22,07,03,13.70
2012,06,22,07,04,13.70
2012,06,22,07,05,13.70
2012,06,22,07,06,13.70
2012,06,22,07,07,13.70
2012,06,22,07,08,13.70
2012,06,22,07,09,13.70
2012,06,22,07,10,13.70
2012,06,22,07,11,13.70
2012,06,22,07,12,13.70
2012,06,22,07,13,13.80
2012,06,22,07,14,13.80
2012,06,22,07,15,13.80
2012,06,22,07,16,13.80
2012,06,22,07,17,13.90
2012,06,22,07,18,13.90
2012,06,22,07,19,13.90
2012,06,22,07,20,13.90
2012,06,22,07,21,14.00
2012,06,22,07,22,14.00
2012,06,22,07,23,14.10
2012,06,22,07,24,14.10
2012,06,22,07,25,14.20
2012,06,22,07,26,14.20
2012,06,22,07,27,14.30
2012,06,22,07,28,14.30
2012,06,22,07,29,14.40
2012,06,22,07,30,14.40
2012,06,22,07,31,14.50
2012,06,22,07,32,14.60
2012,06,22,07,33,14.60
2012,06,22,07,34,14.70
2012,06,22,07,35,14.80
2012,06,22,07,36,14.90
2012,06,22,07,37,15.00
2012,06,22,07,38,15.00
2012,06,22,07,39,15.00
2012,06,22,07,40,15.10
2012,06,22,07,41,15.20
2012,06,22,07,42,15.30
2012,06,22,07,43,15.30
2012,06,22,07,44,15.40
2012,06,22,07,45,15.40
2012,06,22,07,46,15.40
2012,06,22,07,47,15.50
2012,06,22,07,48,15.50
2012,06,22,07,49,15.60
2012,06,22,07,50,15.60
2012,06,22,07,51,15.60
2012,06,22,07,52,15.60
2012,06,22,07,53,15.60
2012,06,22,07,54,15.70
2012,06,22,07,55,15.70
2012,06,22,07,56,15.70
2012,06,22,07,57,15.70
2012,06,22,07,58,15.70
2012,06,22,07,59,15.70
2012,06,22,08,00,15.70
2012,06,22,08,01,15.70
2012,06,22,08,02,15.70
2012,06,22,08,03,15.70
2012,06,22,08,04,15.70
2012,06,22,08,05,15.70
2012,06,22,08,06,15.70
2012,06,22,08,07,15.80
2012,06,22,08,08,15.80
2012,06,22,08,09,15.80
2012,06,22,08,10,15.90
2012,06,22,08,11,15.90
2012,06,22,08,12,15.90
2012,06,22,08,13,15.90
2012,06,22,08,14,15.90
2012,06,22,08,15,15.90
2012,06,22,08,16,15.90
2012,06,22,08,17,16.00
2012,06,22,08,18,16.00
2012,06,22,08,19,16.10
2012,06,22,08,20,16.20
2012,06,22,08,21,16.20
2012,06,22,08,22,16.20
2012,06,22,08,23,16.30
2012,06,22,08,24,16.30
2012,06,22,08,25,16.30
2012,06,22,08,26,16.30
2012,06,22,08,27,16.30
2012,06,22,08,28,16.30
2012,06,22,08,29,16.30
2012,06,22,08,30,16.30
2012,06,22,08,31,16.30
2012,06,22,08,32,16.30
2012,06,22,08,33,16.30
2012,06,22,08,34,16.30
2012,06,22,08,35,16.30
2012,06,22,08,36,16.30
2012,06,22,08,37,16.40
2012,06,22,08,38,16.40
2012,06,22,08,39,16.40
2012,06,22,08,40,16.50
2012,06,22,08,41,16.50
2012,06,22,08,42,16.50
2012,06,22,08,43,16.50
2012,06,22,08,44,16.60
2012,06,22,08,45,16.60
2012,06,22,08,46,16.60
2012,06,22,08,47,16.60
2012,06,22,08,48,16.60
2012,06,22,08,49,16.70
2012,06,22,08,50,16.70
2012,06,22,08,51,16.70
2012,06,22,08,52,16.70
2012,06,22,08,53,16.70
2012,06,22,08,54,16.60
2012,06,22,08,55,16.60
2012,06,22,08,56,16.60
2012,06,22,08,57,16.60
2012,06,22,08,58,16.60
2012,06,22,08,59,16.60
2012,06,22,09,00,16.60
2012,06,22,09,01,16.60
2012,06,22,09,02,16.60
2012,06,22,09,03,16.60
2012,06,22,09,04,16.50
2012,06,22,09,05,16.50
2012,06,22,09,06,16.50
2012,06,22,09,07,16.40
2012,06,22,09,08,16.40
2012,06,22,09,09,16.40
2012,06,22,09,10,16.40
2012,06,22,09,11,16.40
2012,06,22,09,12,16.30
2012,06,22,09,13,16.30
2012,06,22,09,14,16.30
2012,06,22,09,15,16.30
2012,06,22,09,16,16.30
2012,06,22,09,17,16.30
2012,06,22,09,18,16.30
2012,06,22,09,19,16.30
2012,06,22,09,20,16.30
2012,06,22,09,21,16.30
2012,06,22,09,22,16.30
2012,06,22,09,23,16.30
2012,06,22,09,24,16.30
2012,06,22,09,25,16.30
2012,06,22,09,26,16.30
2012,06,22,09,27,16.30
2012,06,22,09,28,16.30
2012,06,22,09,29,16.30
2012,06,22,09,30,16.40
2012,06,22,09,31,16.40
2012,06,22,09,32,16.40
2012,06,22,09,33,16.40
2012,06,22,09,34,16.40
2012,06,22,09,35,16.40
2012,06,22,09,36,16.40
2012,06,22,09,37,16.40
2012,06,22,09,38,16.40
2012,06,22,09,39,16.40
2012,06,22,09,40,16.40
2012,06,22,09,41,16.40
2012,06,22,09,42,16.40
2012,06,22,09,43,16.30
2012,06,22,09,44,16.30
2012,06,22,09,45,16.20
2012,06,22,09,46,16.20
2012,06,22,09,47,16.10
2012,06,22,09,48,16.10
2012,06,22,09,49,16.00
2012,06,22,09,50,15.90
2012,06,22,09,51,15.90
2012,06,22,09,52,15.80
2012,06,22,09,53,15.80
2012,06,22,09,54,15.70
2012,06,22,09,55,15.70
2012,06,22,09,56,15.70
2012,06,22,09,57,15.70
2012,06,22,09,58,15.70
2012,06,22,09,59,15.70
2012,06,22,10,00,15.70
2012,06,22,10,01,15.70
2012,06,22,10,02,15.70
2012,06,22,10,03,15.70
2012,06,22,10,04,15.70
2012,06,22,10,05,15.70
2012,06,22,10,06,15.70
2012,06,22,10,07,15.70
2012,06,22,10,08,15.70
2012,06,22,10,09,15.80
2012,06,22,10,10,15.80
2012,06,22,10,11,15.80
2012,06,22,10,12,15.80
2012,06,22,10,13,15.70
2012,06,22,10,14,15.60
2012,06,22,10,15,15.50
2012,06,22,10,16,15.40
2012,06,22,10,17,15.30
2012,06,22,10,18,15.20
2012,06,22,10,19,15.10
2012,06,22,10,20,15.10
2012,06,22,10,21,15.00
2012,06,22,10,22,15.00
2012,06,22,10,23,15.00
2012,06,22,10,24,15.00
2012,06,22,10,25,15.00
2012,06,22,10,26,14.90
2012,06,22,10,27,14.90
2012,06,22,10,28,14.90
2012,06,22,10,29,14.80
2012,06,22,10,30,14.80
2012,06,22,10,31,14.80
2012,06,22,10,32,14.90
2012,06,22,10,33,14.80
2012,06,22,10,34,14.80
2012,06,22,10,35,14.80
2012,06,22,10,36,14.90
2012,06,22,10,37,14.90
2012,06,22,10,38,15.00
2012,06,22,10,39,15.00
2012,06,22,10,40,15.00
2012,06,22,10,41,15.00
2012,06,22,10,42,15.00
2012,06,22,10,43,15.00
2012,06,22,10,44,15.00
2012,06,22,10,45,15.00
2012,06,22,10,46,15.00
2012,06,22,10,47,15.00
2012,06,22,10,48,15.00
2012,06,22,10,49,15.00
2012,06,22,10,50,14.90
2012,06,22,10,51,14.80
2012,06,22,10,52,14.80
2012,06,22,10,53,14.70
2012,06,22,10,54,14.70
2012,06,22,10,55,14.70
2012,06,22,10,56,14.70
2012,06,22,10,57,14.60
2012,06,22,10,58,14.60
2012,06,22,10,59,14.60
2012,06,22,11,00,14.60
2012,06,22,11,01,14.60
2012,06,22,11,02,14.60
2012,06,22,11,03,14.50
2012,06,22,11,04,14.50
2012,06,22,11,05,14.50
2012,06,22,11,06,14.50
2012,06,22,11,07,14.40
2012,06,22,11,08,14.40
2012,06,22,11,09,14.40
2012,06,22,11,10,14.40
2012,06,22,11,11,14.40
2012,06,22,11,12,14.40
2012,06,22,11,13,14.40
2012,06,22,11,14,14.30
2012,06,22,11,15,14.30
2012,06,22,11,16,14.30
2012,06,22,11,17,14.30
2012,06,22,11,18,14.30
2012,06,22,11,19,14.40
2012,06,22,11,20,14.40
2012,06,22,11,21,14.40
2012,06,22,11,22,14.30
2012,06,22,11,23,14.30
2012,06,22,11,24,14.30
2012,06,22,11,25,14.30
2012,06,22,11,26,14.30
2012,06,22,11,27,14.30
2012,06,22,11,28,14.40
2012,06,22,11,29,14.40
2012,06,22,11,30,14.40
2012,06,22,11,31,14.40
2012,06,22,11,32,14.40
2012,06,22,11,33,14.40
2012,06,22,11,34,14.40
2012,06,22,11,35,14.30
2012,06,22,11,36,14.30
2012,06,22,11,37,14.30
2012,06,22,11,38,14.30
2012,06,22,11,39,14.40
2012,06,22,11,40,14.40
2012,06,22,11,41,14.50
2012,06,22,11,42,14.50
2012,06,22,11,43,14.50
2012,06,22,11,44,14.50
2012,06,22,11,45,14.50
2012,06,22,11,46,14.50
2012,06,22,11,47,14.60
2012,06,22,11,48,14.60
2012,06,22,11,49,14.60
2012,06,22,11,50,14.60
2012,06,22,11,51,14.60
2012,06,22,11,52,14.60
2012,06,22,11,53,14.60
2012,06,22,11,54,14.50
2012,06,22,11,55,14.50
2012,06,22,11,56,14.50
2012,06,22,11,57,14.40
2012,06,22,11,58,14.40
2012,06,22,11,59,14.40
2012,06,22,12,00,14.30
2012,06,22,12,01,14.30
2012,06,22,12,02,14.30
2012,06,22,12,03,14.20
2012,06,22,12,04,14.20
2012,06,22,12,05,14.10
2012,06,22,12,06,14.10
2012,06,22,12,07,14.00
2012,06,22,12,08,14.00
2012,06,22,12,09,14.00
2012,06,22,12,10,13.90
2012,06,22,12,11,13.90
2012,06,22,12,12,13.80
2012,06,22,12,13,13.80
2012,06,22,12,14,13.80
2012,06,22,12,15,13.80
2012,06,22,12,16,13.70
2012,06,22,12,17,13.70
2012,06,22,12,18,13.70
2012,06,22,12,19,13.70
2012,06,22,12,20,13.60
2012,06,22,12,21,13.60
2012,06,22,12,22,13.50
2012,06,22,12,23,13.50
2012,06,22,12,24,13.50
2012,06,22,12,25,13.40
2012,06,22,12,26,13.40
2012,06,22,12,27,13.30
2012,06,22,12,28,13.30
2012,06,22,12,29,13.30
2012,06,22,12,30,13.20
2012,06,22,12,31,13.20
2012,06,22,12,32,13.20
2012,06,22,12,33,13.20
2012,06,22,12,34,13.20
2012,06,22,12,35,13.10
2012,06,22,12,36,13.10
2012,06,22,12,37,13.00
2012,06,22,12,38,13.00
2012,06,22,12,39,12.90
2012,06,22,12,40,12.90
2012,06,22,12,41,12.90
2012,06,22,12,42,12.90
2012,06,22,12,43,12.90
2012,06,22,12,44,12.90
2012,06,22,12,45,12.80
2012,06,22,12,46,12.80
2012,06,22,12,47,12.80
2012,06,22,12,48,12.80
2012,06,22,12,49,12.80
2012,06,22,12,50,12.80
2012,06,22,12,51,12.80
2012,06,22,12,52,12.80
2012,06,22,12,53,12.80
2012,06,22,12,54,12.80
2012,06,22,12,55,12.80
2012,06,22,12,56,12.80
2012,06,22,12,57,12.80
2012,06,22,12,58,12.70
2012,06,22,12,59,12.50
2012,06,22,13,00,12.40
2012,06,22,13,01,12.40
2012,06,22,13,02,12.30
2012,06,22,13,03,12.30
2012,06,22,13,04,12.20
2012,06,22,13,05,12.10
2012,06,22,13,06,12.00
2012,06,22,13,07,11.90
2012,06,22,13,08,11.70
2012,06,22,13,09,11.60
2012,06,22,13,10,11.50
2012,06,22,13,11,11.40
2012,06,22,13,12,11.40
2012,06,22,13,13,11.40
2012,06,22,13,14,11.40
2012,06,22,13,15,11.40
2012,06,22,13,16,11.30
2012,06,22,13,17,11.30
2012,06,22,13,18,11.30
2012,06,22,13,19,11.30
2012,06,22,13,20,11.30
2012,06,22,13,21,11.30
2012,06,22,13,22,11.30
2012,06,22,13,23,11.30
2012,06,22,13,24,11.30
2012,06,22,13,25,11.30
2012,06,22,13,26,11.30
2012,06,22,13,27,11.30
2012,06,22,13,28,11.30
2012,06,22,13,29,11.30
2012,06,22,13,30,11.30
2012,06,22,13,31,11.30
2012,06,22,13,32,11.30
2012,06,22,13,33,11.30
2012,06,22,13,34,11.30
2012,06,22,13,35,11.30
2012,06,22,13,36,11.30
2012,06,22,13,37,11.40
2012,06,22,13,38,11.40
2012,06,22,13,39,11.40
2012,06,22,13,40,11.50
2012,06,22,13,41,11.50
2012,06,22,13,42,11.60
2012,06,22,13,43,11.60
2012,06,22,13,44,11.60
2012,06,22,13,45,11.60
2012,06,22,13,46,11.60
2012,06,22,13,47,11.60
2012,06,22,13,48,11.60
2012,06,22,13,49,11.60
2012,06,22,13,50,11.60
2012,06,22,13,51,11.60
2012,06,22,13,52,11.60
2012,06,22,13,53,11.60
2012,06,22,13,54,11.60
2012,06,22,13,55,11.60
2012,06,22,13,56,11.60
2012,06,22,13,57,11.60
2012,06,22,13,58,11.60
2012,06,22,13,59,11.60
2012,06,22,14,00,11.50
2012,06,22,14,01,11.50
2012,06,22,14,02,11.50
2012,06,22,14,03,11.50
2012,06,22,14,04,11.50
2012,06,22,14,05,11.50
2012,06,22,14,06,11.60
2012,06,22,14,07,11.60
2012,06,22,14,08,11.60
2012,06,22,14,09,11.60
2012,06,22,14,10,11.60
2012,06,22,14,11,11.60
2012,06,22,14,12,11.60
2012,06,22,14,13,11.60
2012,06,22,14,14,11.60
2012,06,22,14,15,11.50
2012,06,22,14,16,11.50
2012,06,22,14,17,11.50
2012,06,22,14,18,11.50
2012,06,22,14,19,11.50
2012,06,22,14,20,11.50
2012,06,22,14,21,11.50
2012,06,22,14,22,11.50
2012,06,22,14,23,11.50
2012,06,22,14,24,11.50
2012,06,22,14,25,11.60
2012,06,22,14,26,11.60
2012,06,22,14,27,11.60
2012,06,22,14,28,11.60
2012,06,22,14,29,11.60
2012,06,22,14,30,11.60
2012,06,22,14,31,11.60
2012,06,22,14,32,11.60
2012,06,22,14,33,11.60
2012,06,22,14,34,11.60
2012,06,22,14,35,11.60
2012,06,22,14,36,11.60
2012,06,22,14,37,11.60
2012,06,22,14,38,11.60
2012,06,22,14,39,11.60
2012,06,22,14,40,11.60
2012,06,22,14,41,11.60
2012,06,22,14,42,11.60
2012,06,22,14,43,11.60
2012,06,22,14,44,11.70
2012,06,22,14,45,11.70
2012,06,22,14,46,11.80
2012,06,22,14,47,11.80
2012,06,22,14,48,11.80
2012,06,22,14,49,11.80
2012,06,22,14,50,11.80
2012,06,22,14,51,11.80
2012,06,22,14,52,11.80
2012,06,22,14,53,11.80
2012,06,22,14,54,11.90
2012,06,22,14,55,11.80
2012,06,22,14,56,11.80
2012,06,22,14,57,11.80
2012,06,22,14,58,11.80
2012,06,22,14,59,11.80
2012,06,22,15,00,11.80
2012,06,22,15,01,11.80
2012,06,22,15,02,11.80
2012,06,22,15,03,11.80
2012,06,22,15,04,11.80
2012,06,22,15,05,11.80
2012,06,22,15,06,11.80
2012,06,22,15,07,11.70
2012,06,22,15,08,11.70
2012,06,22,15,09,11.70
2012,06,22,15,10,11.70
2012,06,22,15,11,11.70
2012,06,22,15,12,11.70
2012,06,22,15,13,11.70
2012,06,22,15,14,11.70
2012,06,22,15,15,11.80
2012,06,22,15,16,11.80
2012,06,22,15,17,11.80
2012,06,22,15,18,11.80
2012,06,22,15,19,11.80
2012,06,22,15,20,11.80
2012,06,22,15,21,11.80
2012,06,22,15,22,11.80
2012,06,22,15,23,11.80
2012,06,22,15,24,11.70
2012,06,22,15,25,11.70
2012,06,22,15,26,11.70
2012,06,22,15,27,11.70
2012,06,22,15,28,11.70
2012,06,22,15,29,11.60
2012,06,22,15,30,11.70
2012,06,22,15,31,11.70
2012,06,22,15,32,11.70
2012,06,22,15,33,11.60
2012,06,22,15,34,11.60
2012,06,22,15,35,11.60
2012,06,22,15,36,11.70
2012,06,22,15,37,11.60
2012,06,22,15,38,11.60
2012,06,22,15,39,11.50
2012,06,22,15,40,11.50
2012,06,22,15,41,11.50
2012,06,22,15,42,11.60
2012,06,22,15,43,11.60
2012,06,22,15,44,11.60
2012,06,22,15,45,11.60
2012,06,22,15,46,11.60
2012,06,22,15,47,11.60
2012,06,22,15,48,11.70
2012,06,22,15,49,11.70
2012,06,22,15,50,11.70
2012,06,22,15,51,11.70
2012,06,22,15,52,11.80
2012,06,22,15,53,11.80
2012,06,22,15,54,11.80
2012,06,22,15,55,11.80
2012,06,22,15,56,11.80
2012,06,22,15,57,11.80
2012,06,22,15,58,11.80
2012,06,22,15,59,11.80
2012,06,22,16,00,11.80
2012,06,22,16,01,11.80
2012,06,22,16,02,11.80
2012,06,22,16,03,11.90
2012,06,22,16,04,11.90
2012,06,22,16,05,11.90
2012,06,22,16,06,11.90
2012,06,22,16,07,12.00
2012,06,22,16,08,12.00
2012,06,22,16,09,12.00
2012,06,22,16,10,12.00
2012,06,22,16,11,12.00
2012,06,22,16,12,12.00
2012,06,22,16,13,11.90
2012,06,22,16,14,11.90
2012,06,22,16,15,11.90
2012,06,22,16,16,11.90
2012,06,22,16,17,11.80
2012,06,22,16,18,11.80
2012,06,22,16,19,11.80
2012,06,22,16,20,11.80
2012,06,22,16,21,11.80
2012,06,22,16,22,11.80
2012,06,22,16,23,11.80
2012,06,22,16,24,11.80
2012,06,22,16,25,11.80
2012,06,22,16,26,11.80
2012,06,22,16,27,11.80
2012,06,22,16,28,11.80
2012,06,22,16,29,11.80
2012,06,22,16,30,11.80
2012,06,22,16,31,11.70
2012,06,22,16,32,11.70
2012,06,22,16,33,11.70
2012,06,22,16,34,11.70
2012,06,22,16,35,11.60
2012,06,22,16,36,11.60
2012,06,22,16,37,11.60
2012,06,22,16,38,11.60
2012,06,22,16,39,11.60
2012,06,22,16,40,11.60
2012,06,22,16,41,11.60
2012,06,22,16,42,11.60
2012,06,22,16,43,11.60
2012,06,22,16,44,11.60
2012,06,22,16,45,11.60
2012,06,22,16,46,11.60
2012,06,22,16,47,11.60
2012,06,22,16,48,11.60
2012,06,22,16,49,11.70
2012,06,22,16,50,11.70
2012,06,22,16,51,11.70
2012,06,22,16,52,11.70
2012,06,22,16,53,11.70
2012,06,22,16,54,11.70
2012,06,22,16,55,11.70
2012,06,22,16,56,11.70
2012,06,22,16,57,11.70
2012,06,22,16,58,11.70
2012,06,22,16,59,11.80
2012,06,22,17,00,11.80
2012,06,22,17,01,11.80
2012,06,22,17,02,11.80
2012,06,22,17,03,11.80
2012,06,22,17,04,11.80
2012,06,22,17,05,11.80
2012,06,22,17,06,11.80
2012,06,22,17,07,11.80
2012,06,22,17,08,11.80
2012,06,22,17,09,11.70
2012,06,22,17,10,11.70
2012,06,22,17,11,11.60
2012,06,22,17,12,11.60
2012,06,22,17,13,11.60
2012,06,22,17,14,11.60
2012,06,22,17,15,11.60
2012,06,22,17,16,11.60
2012,06,22,17,17,11.60
2012,06,22,17,18,11.60
2012,06,22,17,19,11.60